Regional Weather Roundup
Issued by NWS Sterling, VA

Home | Current Version | Previous Version | Graphics & Text | Print | Product List | Glossary On
Versions: 1 2 3 4 5 6 7 8 9 10 11 12 13 14 15 16 17 18 19 20 21 22 23 24 25 26 27
000
ASUS41 KLWX 222310
RWRLWX

REGIONAL WEATHER ROUNDUP
NATIONAL WEATHER SERVICE BALTIMORE MD/WASHINGTON DC
700 PM EDT WED MAR 22 2017

Note: "FAIR" indicates few or no clouds below 12,000 feet
with no significant weather and/or obstructions to visibility.
 TC=TEMPERATURE CELSIUS

 * =Non NWS site. Station does not report precipitation (e.g. rain,
    snow, etc.), thunder, or fog.

DCZ001-MDZ009-015-VAZ040>042-051-053>054-230000-
WASHINGTON METRO

CITY           SKY/WX    TMP DP  RH WIND       PRES   REMARKS
WASHINGTON NAT CLEAR     45   4  18 NW17G28   30.36R
DULLES         CLEAR     42   4  20 NW16G24   30.35R
ANDREWS AFB    CLEAR     42   8  24 N16G22    30.33R
FT BELVOIR     CLEAR     45   4  18 NW14G21   30.35R
QUANTICO       CLEAR     46   6  19 N24G33    30.36R
COLLEGE PARK*  CLEAR     41   3  20 N9G20     30.36R
LEESBURG*      CLEAR     43  12  28 N12G24    30.37R
MANASSAS*      CLEAR     44   8  23 N15G23    30.36R
GAITHERSBURG*  CLEAR     39   3  22 N6G20     30.38R

$$

MDZ006>007-011-014-230000-
BALTIMORE METRO

CITY           SKY/WX    TMP DP  RH WIND       PRES   REMARKS
BWI AIRPORT    CLEAR     42   1  18 N14       30.34R
MD SCIENCE CTR   N/A     44   1  16 MISG      30.34R
MARTIN STATE   CLEAR     43   5  21 NW16      30.37R
ANNAPOLIS      CLEAR     45  13  27 NW13G25   30.34R
FORT MEADE*    CLEAR     41   7  24 NW9G16    30.37R

$$

MDZ012-015-019>023-230000-
MARYLAND EASTERN SHORE

CITY           SKY/WX    TMP DP  RH WIND       PRES   REMARKS
OCEAN CITY     CLEAR     40  11  30 N12       30.32R
SALISBURY      CLEAR     42   8  24 N13       30.31R
BAY BRIDGE AP* CLEAR     43  14  31 N9G18     30.35R
CAMBRIDGE*     CLEAR     43   9  24 N9G17     30.33R
EASTON*        CLEAR     43   3  19 N10G18    30.37R

$$

MDZ017>025-230000-
SOUTHERN MARYLAND

CITY           SKY/WX    TMP DP  RH WIND       PRES   REMARKS
PATUXENT RIVER CLEAR     45  13  27 NW22      30.32R
ST INIGOES     CLEAR     45  11  25 VRB7G17   30.32R
LEONARDTOWN*   CLEAR     43   5  21 NW5       30.35R

$$

MDZ003>005-230000-
NORTH CENTRAL MARYLAND

CITY           SKY/WX    TMP DP  RH WIND       PRES   REMARKS
FREDERICK*     CLEAR     45  10  24 N13G23    30.38R
HAGERSTOWN APT CLEAR     40   3  21 N15       30.35R
WESTMINSTER*   CLEAR     39   7  26 N14G20    30.34R

$$

MDZ501>502-230000-
WESTERN MARYLAND

CITY           SKY/WX    TMP DP  RH WIND       PRES   REMARKS
OAKLAND*       CLEAR     28   3  34 NW9G18    30.31R WCI  20
CUMBERLAND*    CLEAR     41   5  22 NW10      30.42R

$$

VAZ025>031-230000-
SHENANDOAH VALLEY

CITY           SKY/WX    TMP DP  RH WIND       PRES   REMARKS
WINCHESTER*    CLEAR     41   3  20 N8        30.35R
FRONT ROYAL*   CLEAR     43   5  21 NW9G18    30.34R
LURAY*         CLEAR     43  12  28 NW13G18   30.34R
NEW MARKET*    CLEAR     42   5  21 N3        30.34R
STAUNTON*      CLEAR     43  11  27 N9        30.34R
WAYNESBORO*    CLEAR     42  13  30 N10G18    30.31R

$$

WVZ021-048>050-054>055-230000-
EASTERN WEST VIRGINIA PANHANDLE

CITY           SKY/WX    TMP DP  RH WIND       PRES   REMARKS
MARTINSBURG    CLEAR     41   3  20 N14       30.36R
PETERSBURG*    CLEAR     42   8  24 NW10      30.38R

$$

VAZ036>039-050-230000-
CENTRAL FOOTHILLS

CITY           SKY/WX    TMP DP  RH WIND       PRES   REMARKS
CHARLOTTESVILL CLEAR     47  11  23 N9        30.33R
CULPEPER*      CLEAR     46   8  21 N14       30.36R
ORANGE*        CLEAR     45  12  26 N7        30.35R
GORDONSVILLE*  CLEAR     47   8  20 N5        30.33R
WARRENTON*     CLEAR     46  -4  12 NW12G20   30.34R

$$

VAZ055>057-230000-
NORTH AND CENTRAL PIEDMONT

CITY           SKY/WX    TMP DP  RH WIND       PRES   REMARKS
FREDERICKSBRG* CLEAR     47  11  23 NW10G18   30.34R
STAFFORD*      CLEAR     44   6  21 N12       30.38R

$$

NCZ024-NYZ072-PAZ021-071-VAZ022-071-230000-
OTHER REGIONAL OBSERVATIONS

CITY           SKY/WX    TMP DP  RH WIND       PRES   REMARKS
NEW YORK CITY  CLEAR     30  -5  21 NW12G32   30.32R WCI  20
PHILADELPHIA   CLEAR     36   1  22 NW22      30.36R WCI  25
PITTSBURGH     CLEAR     35   6  29 NW14      30.44R WCI  26
ROANOKE        CLEAR     51  12  21 NW13G20   30.30R
RICHMOND       CLEAR     48  10  21 N10       30.31R
RALEIGH        PTCLDY    55  15  20 NE13      30.26R

$$

ANZ530>537-230000-
MARINE OBSERVATIONS

STATION/POSITION TIME  TEMP    WIND        PRES
                       AIR SEA DIR/SP/G
                 (UTC) (F)     (DEG/KT/KT) (MB)
THOMAS PT LIGHT  2300   43 44  350/ 19/ 21   N/A
BALT KEY BRIDGE  2242   43     320/ 16/ 20 1027.4R
COVE POINT       2242   42      30/ 18/ 22 1027.3R
LEWISETTA        2242   46 49  340/ 11/ 16 1026.4R
SOLOMONS ISLAND  2242   45 46  320/ 11/ 16   N/A
PINEY POINT      2242          340/ 18/ 21   N/A

$$





USA.gov is the U.S. government's official web portal to all federal, state and local government web resources and services.